PBO Station Position Time Series. Reference Frame : NAM14
Format Version,1.1.0
4-character ID,P347
Station name,AdinCTYardCN2007
Begin Date, 2007-09-14
End Date, 2019-10-07
Release Date, 2019-10-08
Reference position, 41.1833433032 North Latitude, -120.9484624674 East Longitude, 1268.82362 meters elevation,
Date, North (mm), East (mm), Vertical (mm), North Std. Deviation (mm), East Std. Deviation (mm),              Vertical Std. Deviation (mm), Quality,
2007-09-14,0.00, 0.00, 0.00, 2.21, 1.70, 7.63, repro,
2007-09-15,-1.97, 1.58, 5.94, 2.24, 1.67, 7.67, repro,
2007-09-16,-1.15, 0.18, 3.82, 2.18, 1.65, 7.41, repro,
2007-09-17,-1.59, -0.13, 5.46, 2.27, 1.74, 7.80, repro,
2007-09-18,-0.20, 0.02, -1.86, 2.11, 1.65, 7.32, repro,
2007-09-19,-0.56, 0.07, 2.91, 2.06, 1.57, 7.06, repro,
2007-09-20,-0.89, 1.57, 2.42, 2.11, 1.60, 7.19, repro,
2007-09-21,-0.93, 1.88, 4.90, 2.15, 1.61, 7.32, repro,
2007-09-22,-1.46, 1.38, 9.09, 2.13, 1.58, 7.21, repro,
2007-09-23,-0.31, 1.16, 3.22, 2.15, 1.62, 7.28, repro,
2007-09-24,-1.72, 1.64, 1.98, 2.20, 1.64, 7.43, repro,
2007-09-25,-1.74, 0.77, -2.48, 2.14, 1.60, 7.28, repro,
2007-09-26,-0.91, 1.04, 6.12, 2.18, 1.59, 7.29, repro,
2007-09-27,-2.77, 1.06, 2.99, 2.15, 1.60, 7.29, repro,
2007-09-28,-0.58, -0.37, 8.08, 2.13, 1.67, 7.40, repro,
2007-09-29,-1.79, -0.16, 0.39, 2.16, 1.68, 7.43, repro,
2007-09-30,-0.69, 0.18, 3.12, 2.14, 1.66, 7.37, repro,
2007-10-01,-0.77, 0.37, 5.81, 2.13, 1.65, 7.32, repro,
2007-10-02,-0.97, 1.99, 6.93, 2.28, 1.74, 7.71, repro,
2007-10-03,-2.23, 0.89, 11.24, 2.15, 1.64, 7.38, repro,
2007-10-04,-2.49, 1.74, 13.77, 2.15, 1.65, 7.46, repro,
2007-10-05,-1.53, 0.63, 2.11, 2.19, 1.73, 7.70, repro,
2007-10-06,-0.22, 1.33, 11.95, 2.14, 1.65, 7.32, repro,
2007-10-07,-0.94, 1.24, 0.76, 2.19, 1.68, 7.47, repro,
2007-10-08,-1.58, 2.27, 5.32, 2.39, 1.77, 8.17, repro,
2007-10-09,-0.75, 0.99, 8.92, 2.31, 1.83, 8.06, repro,
2007-10-10,-1.01, 1.08, 0.03, 2.33, 1.73, 7.95, repro,
2007-10-11,-0.96, 1.96, -4.75, 2.13, 1.66, 7.31, repro,
2007-10-12,-1.28, 1.84, 6.67, 2.14, 1.66, 7.35, repro,
2007-10-13,-1.19, 1.30, 6.57, 2.08, 1.60, 7.19, repro,
2007-10-14,-0.95, 1.10, 6.06, 2.07, 1.60, 7.15, repro,
2007-10-15,-2.23, 1.34, -0.42, 2.15, 1.67, 7.39, repro,
2007-10-16,-1.83, 1.35, 2.05, 2.10, 1.62, 7.26, repro,
2007-10-17,-2.46, 2.28, -1.42, 2.07, 1.60, 7.16, repro,
2007-10-18,-0.67, 0.84, 4.92, 2.13, 1.66, 7.34, repro,
2007-10-19,-0.57, 1.34, 11.31, 2.08, 1.61, 7.22, repro,
2007-10-20,-0.16, 2.02, 5.96, 2.09, 1.60, 7.20, repro,
2007-10-21,-1.03, 1.49, -1.50, 2.08, 1.60, 7.16, repro,
2007-10-22,-3.06, 1.38, -1.55, 2.09, 1.60, 7.20, repro,
2007-10-23,-0.22, 2.48, -5.05, 2.14, 1.66, 7.36, repro,
2007-10-24,-0.70, 1.44, -3.88, 2.18, 1.71, 7.56, repro,
2007-10-25,-2.33, 1.70, 1.86, 2.08, 1.60, 7.20, repro,
2007-10-26,-1.51, 1.34, -5.27, 2.12, 1.65, 7.33, repro,
2007-10-27,-1.55, 1.11, -4.69, 2.09, 1.61, 7.22, repro,
2007-10-28,-1.41, 2.10, -2.50, 2.08, 1.61, 7.17, repro,
2007-10-29,0.23, 1.12, -0.04, 2.10, 1.62, 7.27, repro,
2007-10-30,-1.96, 2.12, -4.86, 2.13, 1.69, 7.44, repro,
2007-10-31,-1.95, 0.76, -4.38, 2.09, 1.61, 7.23, repro,
2007-11-01,-1.69, 1.38, -5.78, 2.05, 1.57, 7.04, repro,
2007-11-02,-1.41, 1.12, 1.62, 2.06, 1.57, 7.03, repro,
2007-11-03,-1.23, 2.14, -2.42, 2.04, 1.57, 6.98, repro,
2007-11-04,-1.26, 1.94, 0.49, 2.05, 1.58, 7.04, repro,
2007-11-05,-1.26, 1.45, -1.92, 2.04, 1.58, 7.06, repro,
2007-11-06,-2.20, 1.10, -6.73, 2.12, 1.66, 7.39, repro,
2007-11-07,-0.82, 1.11, -5.09, 2.06, 1.57, 7.02, repro,
2007-11-08,-1.46, 1.69, 0.20, 2.07, 1.60, 7.05, repro,
2007-11-09,-1.99, 0.56, 1.68, 2.10, 1.62, 7.16, repro,
2007-11-10,-1.54, 1.05, -0.68, 2.04, 1.57, 7.03, repro,
2007-11-11,-1.37, 0.77, -3.63, 2.05, 1.57, 7.03, repro,
2007-11-12,-0.52, 1.52, -2.01, 2.05, 1.57, 7.04, repro,
2007-11-13,-0.81, 1.21, 4.83, 2.04, 1.56, 7.01, repro,
2007-11-14,-1.03, 1.12, -5.83, 2.07, 1.59, 7.08, repro,
2007-11-15,-1.10, 1.45, -3.66, 2.08, 1.59, 7.15, repro,
2007-11-16,-0.79, -0.08, -4.59, 2.04, 1.56, 6.98, repro,
2007-11-17,-0.69, -0.13, -7.77, 2.05, 1.56, 7.00, repro,
2007-11-18,-0.55, -0.53, -0.99, 2.05, 1.57, 7.06, repro,
2007-11-19,0.61, -1.21, -3.49, 2.04, 1.57, 7.00, repro,
2007-11-20,-1.65, -0.23, -2.28, 2.07, 1.62, 7.16, repro,
2007-11-21,-0.90, 0.53, -3.95, 2.12, 1.68, 7.37, repro,
2007-11-22,-0.62, 0.76, -11.24, 2.10, 1.63, 7.18, repro,
2007-11-23,-0.20, 0.20, -4.57, 2.15, 1.71, 7.44, repro,
2007-11-24,0.04, 0.32, -2.40, 2.13, 1.66, 7.31, repro,
2007-11-25,-0.81, 0.99, -0.82, 2.15, 1.72, 7.41, repro,
2007-11-26,-0.78, 1.24, -7.66, 2.15, 1.70, 7.44, repro,
2007-11-27,-0.87, 0.50, -6.27, 2.14, 1.68, 7.37, repro,
2007-11-28,-1.18, 1.26, -10.57, 2.12, 1.67, 7.27, repro,
2007-11-29,-0.98, -0.12, -3.48, 2.15, 1.65, 7.42, repro,
2007-11-30,-0.44, 1.51, -0.92, 2.16, 1.71, 7.43, repro,
2007-12-01,-1.63, 0.79, 0.74, 2.20, 1.77, 7.77, repro,
2007-12-02,-1.51, 1.85, 0.37, 2.27, 1.80, 8.02, repro,
2007-12-03,-0.66, 1.28, -7.91, 2.26, 1.75, 7.96, repro,
2007-12-04,-0.57, 2.21, -12.44, 2.26, 1.83, 7.98, repro,
2007-12-05,0.46, 2.53, -4.93, 2.32, 1.89, 8.39, repro,
2007-12-06,0.36, 1.20, 0.94, 2.43, 2.04, 8.76, repro,
2007-12-07,0.29, 2.78, -1.19, 2.32, 1.92, 8.23, repro,
2007-12-08,-1.91, 2.13, 3.70, 2.16, 1.70, 7.51, repro,
2007-12-09,0.88, 1.36, -4.84, 2.45, 2.12, 8.90, repro,
2007-12-10,0.91, 1.27, -5.09, 2.15, 1.72, 7.45, repro,
2007-12-11,-0.43, 1.63, -3.34, 2.20, 1.72, 7.59, repro,
2007-12-12,0.51, 0.25, -12.50, 2.25, 1.74, 7.80, repro,
2007-12-13,-0.70, 1.50, -11.54, 2.17, 1.69, 7.40, repro,
2007-12-14,-0.14, 1.92, -4.48, 2.10, 1.60, 7.21, repro,
2007-12-15,-1.45, 1.86, -0.12, 2.13, 1.61, 7.28, repro,
2007-12-16,-0.12, 0.88, -5.75, 2.11, 1.60, 7.22, repro,
2007-12-17,0.07, 1.29, 0.19, 2.16, 1.66, 7.36, repro,
2007-12-18,-0.08, -0.39, 1.64, 2.10, 1.61, 7.24, repro,
2007-12-19,-0.24, 2.22, -4.62, 2.11, 1.63, 7.29, repro,
2007-12-20,-1.01, 1.42, 1.42, 2.12, 1.62, 7.30, repro,
2007-12-21,-0.44, 0.16, -7.72, 2.18, 1.66, 7.45, repro,
2007-12-22,0.98, -1.27, -9.09, 2.21, 1.71, 7.71, repro,
2007-12-23,-0.66, 2.69, -6.36, 2.15, 1.68, 7.46, repro,
2007-12-24,1.04, 2.16, -2.45, 2.12, 1.63, 7.31, repro,
2007-12-25,-0.63, 2.52, -0.80, 2.11, 1.62, 7.27, repro,
2007-12-26,-1.84, 1.15, -1.35, 2.13, 1.62, 7.27, repro,
2007-12-27,0.30, 1.47, 1.52, 2.14, 1.62, 7.33, repro,
2007-12-28,-1.90, 0.58, -10.05, 2.17, 1.66, 7.45, repro,
2007-12-29,-2.79, 1.37, -2.14, 2.14, 1.62, 7.34, repro,
2007-12-30,-1.78, 1.23, -1.85, 2.16, 1.66, 7.46, repro,
2007-12-31,0.14, 1.53, -5.03, 2.12, 1.59, 7.22, repro,
2008-01-01,0.58, 1.66, -11.02, 2.11, 1.57, 7.11, repro,
2008-01-02,0.38, 1.46, -6.24, 2.11, 1.57, 7.12, repro,
2008-01-03,-1.33, 0.39, 1.49, 2.12, 1.58, 7.25, repro,
2008-01-04,0.09, 1.65, 3.94, 2.11, 1.59, 7.23, repro,
2008-01-05,-1.07, 0.70, 9.33, 2.08, 1.55, 7.05, repro,
2008-01-06,-0.53, -0.34, 1.44, 2.08, 1.55, 7.05, repro,
2008-01-07,-1.18, 0.88, -2.42, 2.08, 1.55, 7.09, repro,
2008-01-08,-2.10, 1.31, 0.60, 2.21, 1.60, 7.36, repro,
2008-01-09,-0.94, 1.29, -3.90, 2.12, 1.56, 7.17, repro,
2008-01-10,1.86, -0.26, -2.26, 2.05, 1.56, 7.03, repro,
2008-01-11,-0.98, 1.67, -6.60, 2.07, 1.56, 7.05, repro,
2008-01-12,0.49, 1.19, -8.56, 2.07, 1.56, 7.04, repro,
2008-01-13,-1.28, 1.69, -15.03, 2.09, 1.56, 7.11, repro,
2008-01-14,-1.19, 1.84, -6.88, 2.07, 1.57, 7.09, repro,
2008-01-15,-1.82, 0.51, -5.70, 2.04, 1.55, 6.95, repro,
2008-01-16,-1.77, 1.09, -8.68, 2.09, 1.57, 7.12, repro,
2008-01-17,-1.20, 2.06, -7.90, 2.11, 1.58, 7.14, repro,
2008-01-18,-0.79, 1.31, -7.27, 2.09, 1.61, 7.26, repro,
2008-01-19,-0.61, 1.52, -9.80, 2.07, 1.57, 7.07, repro,
2008-01-20,-1.27, 1.81, -9.07, 2.05, 1.55, 7.00, repro,
2008-01-21,-1.58, 1.28, -1.41, 2.04, 1.56, 6.97, repro,
2008-01-22,-1.98, 1.59, -7.23, 2.06, 1.56, 7.00, repro,
2008-01-23,-1.50, 1.38, -8.59, 2.07, 1.57, 7.07, repro,
2008-01-24,-0.86, 1.89, -2.98, 2.07, 1.57, 7.07, repro,
2008-01-25,-1.55, 0.74, 0.81, 2.04, 1.55, 6.95, repro,
2008-01-26,0.27, 2.65, 1.80, 2.04, 1.55, 6.96, repro,
2008-01-27,-1.67, 1.55, 7.73, 2.04, 1.56, 6.97, repro,
2008-01-28,-2.39, 1.40, 3.12, 2.06, 1.55, 7.01, repro,
2008-01-29,-0.13, 1.02, 1.31, 2.17, 1.68, 7.43, repro,
2008-01-30,-0.76, 1.32, -6.57, 2.15, 1.62, 7.28, repro,
2008-01-31,-0.89, 1.95, -12.55, 2.05, 1.56, 7.02, repro,
2008-02-01,-2.40, 1.87, -5.93, 2.05, 1.56, 7.01, repro,
2008-02-02,-1.41, 2.61, -6.92, 2.05, 1.56, 7.03, repro,
2008-02-03,-0.26, 1.80, -5.98, 2.07, 1.56, 7.03, repro,
2008-02-04,-1.22, 1.29, -3.96, 2.05, 1.55, 6.99, repro,
2008-02-05,-1.23, 2.03, -9.60, 2.10, 1.63, 7.24, repro,
2008-02-06,-1.06, 0.52, -7.60, 2.08, 1.62, 7.15, repro,
2008-02-07,-1.43, 1.10, -4.93, 2.07, 1.59, 7.12, repro,
2008-02-08,-1.91, 0.99, -7.33, 2.05, 1.55, 7.01, repro,
2008-02-09,-1.32, 2.13, -9.47, 2.05, 1.57, 7.03, repro,
2008-02-10,-1.30, 2.16, -8.64, 2.05, 1.55, 7.02, repro,
2008-02-11,-1.27, 1.79, -6.20, 2.05, 1.55, 6.98, repro,
2008-02-12,-1.73, 3.14, -3.84, 2.05, 1.56, 7.00, repro,
2008-02-13,-2.02, 1.17, 3.50, 2.04, 1.56, 7.00, repro,
2008-02-14,-1.70, 0.13, -2.85, 2.05, 1.55, 6.98, repro,
2008-02-15,-0.46, 1.55, -7.18, 2.08, 1.61, 7.15, repro,
2008-02-16,-1.29, 1.77, -6.09, 2.05, 1.55, 7.00, repro,
2008-02-17,-1.99, 1.96, -5.91, 2.04, 1.56, 6.97, repro,
2008-02-18,-2.80, 2.11, -3.31, 2.05, 1.57, 7.02, repro,
2008-02-19,-2.55, 2.21, -2.57, 2.05, 1.56, 7.01, repro,
2008-02-20,-1.00, 1.14, -7.80, 2.06, 1.58, 7.09, repro,
2008-02-21,-1.73, 1.74, -1.21, 2.05, 1.56, 6.98, repro,
2008-02-22,-1.93, 1.51, -2.19, 2.05, 1.57, 7.02, repro,
2008-02-23,-1.55, 1.86, -5.20, 2.09, 1.60, 7.17, repro,
2008-02-24,-1.62, 1.92, 0.96, 2.03, 1.56, 6.94, repro,
2008-02-25,-2.12, 2.14, -6.73, 2.07, 1.57, 7.10, repro,
2008-02-26,-2.48, 1.41, -13.73, 2.08, 1.58, 7.13, repro,
2008-02-27,-2.33, 1.51, -12.96, 2.10, 1.60, 7.22, repro,
2008-02-28,-1.62, 0.84, -8.85, 2.10, 1.60, 7.17, repro,
2008-02-29,-2.83, 2.60, -2.83, 2.05, 1.56, 7.01, repro,
2008-03-01,-1.99, 1.60, -8.32, 2.05, 1.57, 7.07, repro,
2008-03-02,-3.32, 2.36, -10.69, 2.11, 1.62, 7.25, repro,
2008-03-03,-1.99, 1.37, -8.92, 2.05, 1.56, 7.02, repro,
2008-03-04,-2.36, 1.66, -8.53, 2.06, 1.56, 7.03, repro,
2008-03-05,-1.74, 2.20, -5.49, 2.12, 1.66, 7.37, repro,
2008-03-06,-1.51, 1.66, -7.52, 2.05, 1.56, 7.02, repro,
2008-03-07,-1.04, 1.62, -11.83, 2.07, 1.57, 7.06, repro,
2008-03-08,-3.13, 1.72, -11.72, 2.09, 1.61, 7.29, repro,
2008-03-09,-2.56, 1.42, -11.51, 2.09, 1.60, 7.27, repro,
2008-03-10,-2.26, 1.47, -8.10, 2.06, 1.56, 7.03, repro,
2008-03-11,-1.39, 2.22, -7.31, 2.06, 1.57, 7.08, repro,
2008-03-12,-1.85, 0.45, -4.99, 2.08, 1.60, 7.24, repro,
2008-03-13,-3.02, 0.59, -3.07, 2.09, 1.61, 7.25, repro,
2008-03-14,-2.98, 1.49, -7.15, 2.07, 1.58, 7.14, repro,
2008-03-15,-1.66, 1.10, -7.62, 2.05, 1.57, 7.04, repro,
2008-03-16,-2.56, 1.04, 0.52, 2.11, 1.61, 7.27, repro,
2008-03-17,-0.85, 1.57, -4.82, 2.19, 1.73, 7.79, repro,
2008-03-18,-0.57, 0.83, -9.86, 2.12, 1.64, 7.38, repro,
2008-03-19,-0.61, 1.27, -9.34, 2.10, 1.60, 7.24, repro,
2008-03-20,-0.69, 2.25, -9.72, 2.08, 1.61, 7.25, repro,
2008-03-21,-0.39, 1.16, -10.55, 2.10, 1.60, 7.26, repro,
2008-03-22,-1.15, 1.55, -10.15, 2.09, 1.60, 7.22, repro,
2008-03-23,-1.79, 0.71, -10.00, 2.10, 1.60, 7.23, repro,
2008-03-24,-0.24, -0.74, -12.87, 2.11, 1.60, 7.25, repro,
2008-03-25,-4.11, -1.77, -14.76, 2.13, 1.65, 7.37, repro,
2008-03-26,-1.55, 3.53, -0.70, 2.13, 1.64, 7.39, repro,
2008-03-27,-0.14, 2.21, -8.36, 2.12, 1.64, 7.36, repro,
2008-03-28,0.38, 1.19, -2.36, 2.10, 1.61, 7.20, repro,
2008-03-29,-1.83, 1.31, -1.91, 2.10, 1.57, 7.18, repro,
2008-03-30,-1.20, 0.53, -6.06, 2.10, 1.58, 7.19, repro,
2008-03-31,-0.64, 1.94, -3.61, 2.09, 1.58, 7.17, repro,
2008-04-01,-1.02, 1.61, -4.75, 2.09, 1.57, 7.17, repro,
2008-04-02,-0.85, 2.17, -6.36, 2.13, 1.57, 7.24, repro,
2008-04-03,-0.91, 1.05, -8.96, 2.10, 1.57, 7.18, repro,
2008-04-04,-1.91, 0.87, -6.05, 2.09, 1.57, 7.17, repro,
2008-04-05,-1.77, 1.43, -0.28, 2.09, 1.58, 7.22, repro,
2008-04-06,-0.90, 1.10, -14.80, 2.08, 1.56, 7.12, repro,
2008-04-07,-1.24, 1.05, -5.08, 2.07, 1.56, 7.12, repro,
2008-04-08,-1.86, 0.88, -3.53, 2.09, 1.56, 7.16, repro,
2008-04-09,-1.71, 0.94, -3.91, 2.09, 1.57, 7.20, repro,
2008-04-10,-2.76, 0.83, -1.20, 2.08, 1.56, 7.16, repro,
2008-04-11,-2.18, 1.31, -7.51, 2.08, 1.57, 7.19, repro,
2008-04-12,-1.03, 1.40, -6.91, 2.07, 1.57, 7.14, repro,
2008-04-13,-0.65, 2.12, -9.37, 2.08, 1.56, 7.16, repro,
2008-04-14,-0.04, 0.27, -3.25, 2.10, 1.57, 7.21, repro,
2008-04-15,-0.50, 0.69, -0.60, 2.13, 1.62, 7.30, repro,
2008-04-16,-1.62, 0.57, -3.10, 2.13, 1.62, 7.32, repro,
2008-04-17,-1.77, 0.51, -3.05, 2.09, 1.57, 7.20, repro,
2008-04-18,0.16, 1.58, -8.44, 2.09, 1.57, 7.20, repro,
2008-04-19,-0.44, -0.75, -5.54, 2.09, 1.56, 7.16, repro,
2008-04-20,-2.41, 0.70, -1.23, 2.10, 1.57, 7.25, repro,
2008-04-21,-2.30, 0.36, -5.85, 2.09, 1.56, 7.19, repro,
2008-04-22,-1.70, 0.17, -3.02, 2.08, 1.56, 7.17, repro,
2008-04-23,-2.38, 0.62, -5.76, 2.17, 1.64, 7.53, repro,
2008-04-24,-1.27, 1.13, -6.96, 2.12, 1.59, 7.31, repro,
2008-04-25,-1.52, 1.02, -6.46, 2.10, 1.56, 7.22, repro,
2008-04-26,-1.99, 0.73, -13.13, 2.21, 1.64, 7.53, repro,
2008-04-27,-0.87, 0.85, -12.49, 2.18, 1.59, 7.36, repro,
2008-04-28,-1.37, 2.15, -8.74, 2.19, 1.60, 7.40, repro,
2008-04-29,-0.49, -0.31, 0.32, 2.26, 1.63, 7.61, repro,
2008-04-30,-1.02, 0.93, -6.28, 2.15, 1.60, 7.32, repro,
2008-05-01,-0.27, 0.93, -4.51, 2.14, 1.59, 7.31, repro,
2008-05-02,-1.12, 0.82, -4.00, 2.18, 1.63, 7.44, repro,
2008-05-03,-1.09, 0.78, -0.32, 2.16, 1.60, 7.37, repro,
2008-05-04,-0.87, 0.63, -4.10, 2.12, 1.59, 7.32, repro,
2008-05-05,-3.53, 0.93, -6.46, 2.16, 1.61, 7.37, repro,
2008-05-06,-1.94, -0.13, -11.06, 2.18, 1.65, 7.55, repro,
2008-05-07,-0.19, -0.43, -2.12, 2.13, 1.58, 7.31, repro,
2008-05-08,-0.87, 0.61, 0.37, 2.29, 1.68, 7.79, repro,
2008-05-09,-2.37, -0.06, -3.80, 2.15, 1.59, 7.36, repro,
2008-05-10,-1.25, 0.60, -4.89, 2.16, 1.61, 7.40, repro,
2008-05-11,-1.58, -0.24, 3.35, 2.14, 1.60, 7.38, repro,
2008-05-12,-2.04, 0.98, -0.20, 2.15, 1.59, 7.30, repro,
2008-05-13,-1.31, 0.70, -1.19, 2.18, 1.62, 7.44, repro,
2008-05-14,-3.00, 1.06, -4.97, 2.16, 1.59, 7.30, repro,
2008-05-15,-1.48, 0.24, -4.77, 2.12, 1.56, 7.18, repro,
2008-05-16,-2.05, 0.72, -0.74, 2.11, 1.57, 7.21, repro,
2008-05-17,-1.17, 0.25, -4.53, 2.14, 1.58, 7.27, repro,
2008-05-18,-0.32, -0.11, -6.00, 2.16, 1.58, 7.25, repro,
2008-05-19,-2.26, 0.21, -4.88, 2.11, 1.56, 7.24, repro,
2008-05-20,-2.09, -0.79, -5.57, 2.11, 1.58, 7.32, repro,
2008-05-21,-2.99, 0.54, 8.72, 2.12, 1.57, 7.26, repro,
2008-05-22,-3.78, -0.47, 14.46, 2.11, 1.59, 7.31, repro,
2008-05-23,-1.50, -0.73, 3.43, 2.11, 1.58, 7.32, repro,
2008-05-24,-3.41, -0.99, -5.19, 2.11, 1.55, 7.21, repro,
2008-05-25,-2.94, -0.12, -2.11, 2.10, 1.56, 7.24, repro,
2008-05-26,-2.39, -0.42, -2.90, 2.12, 1.59, 7.33, repro,
2008-05-27,-2.53, 0.91, -3.04, 2.09, 1.56, 7.17, repro,
2008-05-28,-2.23, -0.07, -2.40, 2.09, 1.55, 7.16, repro,
2008-05-29,-1.51, -0.06, -5.03, 2.15, 1.59, 7.33, repro,
2008-05-30,-1.48, 0.75, -3.31, 2.09, 1.55, 7.15, repro,
2008-05-31,-2.56, 1.62, -1.15, 2.14, 1.61, 7.38, repro,
2008-06-01,-1.52, 0.34, -3.03, 2.10, 1.57, 7.23, repro,
2008-06-02,-2.13, 0.30, -6.57, 2.09, 1.55, 7.18, repro,
2008-06-03,-0.82, 0.95, -5.25, 2.16, 1.62, 7.45, repro,
2008-06-04,-2.19, 1.20, -1.99, 2.10, 1.56, 7.22, repro,
2008-06-05,-1.86, 0.15, -1.71, 2.10, 1.56, 7.24, repro,
2008-06-06,-1.18, -0.29, -5.60, 2.12, 1.59, 7.31, repro,
2008-06-07,-1.66, 0.21, 2.40, 2.16, 1.63, 7.44, repro,
2008-06-08,-1.73, 0.79, -7.50, 2.15, 1.60, 7.35, repro,
2008-06-09,-1.37, 2.21, -6.88, 2.14, 1.59, 7.34, repro,
2008-06-10,-0.56, 2.09, -13.99, 2.11, 1.56, 7.28, repro,
2008-06-11,-0.64, 0.55, -4.11, 2.11, 1.56, 7.26, repro,
2008-06-12,-0.55, 1.65, 1.37, 2.12, 1.58, 7.32, repro,
2008-06-13,-1.60, 1.39, -6.05, 2.10, 1.56, 7.21, repro,
2008-06-14,-1.15, 1.33, -5.41, 2.16, 1.58, 7.35, repro,
2008-06-15,-0.25, 1.96, -8.88, 2.17, 1.60, 7.43, repro,
2008-06-16,-0.10, 0.52, -5.72, 2.10, 1.56, 7.22, repro,
2008-06-17,-1.79, 0.57, -4.39, 2.14, 1.58, 7.35, repro,
2008-06-18,-0.81, 0.99, -4.38, 2.09, 1.57, 7.19, repro,
2008-06-19,0.17, 0.94, -6.57, 2.12, 1.60, 7.32, repro,
2008-06-20,0.68, 0.92, -8.55, 2.10, 1.56, 7.22, repro,
2008-06-21,2.73, 1.23, -16.80, 2.15, 1.60, 7.49, repro,
2008-06-22,-1.67, 2.23, -7.59, 2.10, 1.56, 7.18, repro,
2008-06-23,0.08, 1.73, -0.77, 2.09, 1.56, 7.18, repro,
2008-06-24,0.23, 2.32, -7.26, 2.10, 1.55, 7.17, repro,
2008-06-25,0.05, 2.41, -1.42, 2.10, 1.54, 7.16, repro,
2008-06-26,0.89, 1.44, -2.34, 2.14, 1.61, 7.37, repro,
2008-06-27,0.14, 0.24, -0.56, 2.10, 1.55, 7.17, repro,
2008-06-28,0.48, 1.63, -0.31, 2.13, 1.62, 7.36, repro,
2008-06-29,-0.10, 1.47, -4.05, 2.15, 1.63, 7.45, repro,
2008-06-30,-0.54, 0.59, -8.46, 2.15, 1.59, 7.40, repro,
2008-07-01,-1.29, 0.57, -2.02, 2.10, 1.55, 7.18, repro,
2008-07-02,-0.80, -0.03, -4.17, 2.11, 1.55, 7.19, repro,
2008-07-03,0.19, -0.39, 0.18, 2.08, 1.54, 7.10, repro,
2008-07-04,0.61, 2.71, -3.01, 2.10, 1.56, 7.24, repro,
2008-07-05,-1.25, 0.01, 1.12, 2.11, 1.56, 7.26, repro,
2008-07-06,-1.46, 0.73, 10.59, 2.10, 1.55, 7.22, repro,
2008-07-07,-0.64, 2.21, -1.18, 2.11, 1.56, 7.22, repro,
2008-07-08,-0.82, 1.00, 0.43, 2.09, 1.54, 7.10, repro,
2008-07-09,-0.05, 1.92, -0.69, 2.14, 1.61, 7.35, repro,
2008-07-10,-1.12, 0.60, 2.18, 2.24, 1.69, 7.82, repro,
2008-07-11,-1.02, 1.18, 6.80, 2.16, 1.60, 7.33, repro,
2008-07-12,-1.27, 1.94, 0.34, 2.12, 1.56, 7.25, repro,
2008-07-13,-0.38, 0.49, 0.55, 2.17, 1.61, 7.43, repro,
2008-07-14,-1.63, 1.07, 2.68, 2.22, 1.62, 7.52, repro,
2008-07-15,-0.73, 0.42, 12.20, 2.14, 1.58, 7.33, repro,
2008-07-16,-2.53, 1.75, -1.76, 2.12, 1.57, 7.30, repro,
2008-07-17,-0.78, 0.81, 6.28, 2.10, 1.56, 7.20, repro,
2008-07-18,-1.30, 1.03, -0.54, 2.23, 1.61, 7.59, repro,
2008-07-19,-2.14, 0.51, 0.18, 2.16, 1.56, 7.34, repro,
2008-07-20,-1.45, 1.12, -1.55, 2.09, 1.56, 7.16, repro,
2008-07-21,0.26, -0.30, 7.46, 2.25, 1.64, 7.65, repro,
2008-07-22,-1.46, 1.08, 5.41, 2.11, 1.56, 7.18, repro,
2008-07-23,-2.00, 1.58, 4.53, 2.15, 1.56, 7.31, repro,
2008-07-24,-0.94, 0.89, 2.15, 2.11, 1.55, 7.16, repro,
2008-07-25,-0.99, 0.80, 1.02, 2.14, 1.61, 7.32, repro,
2008-07-26,-1.30, 1.25, 1.09, 2.09, 1.55, 7.15, repro,
2008-07-27,0.54, -0.80, 5.39, 2.10, 1.56, 7.19, repro,
2008-07-28,-0.25, 0.62, 12.87, 2.19, 1.58, 7.35, repro,
2008-07-29,-1.30, 2.01, 7.41, 2.15, 1.56, 7.36, repro,
2008-07-30,-0.82, 1.36, 10.43, 2.16, 1.56, 7.39, repro,
2008-07-31,-1.85, 1.94, 6.42, 2.08, 1.54, 7.13, repro,
2008-08-01,-2.15, 0.63, 10.11, 2.11, 1.56, 7.21, repro,
2008-08-02,-1.19, 1.34, 10.79, 2.10, 1.55, 7.18, repro,
2008-08-03,-0.39, 1.06, 7.24, 2.14, 1.58, 7.31, repro,
2008-08-04,-0.44, 1.95, 0.85, 2.08, 1.55, 7.12, repro,
2008-08-05,-0.45, 1.10, 7.40, 2.08, 1.55, 7.13, repro,
2008-08-06,-0.86, 0.44, 0.48, 2.15, 1.56, 7.26, repro,
2008-08-07,-3.18, 2.64, 8.91, 2.22, 1.64, 7.55, repro,
2008-08-08,-1.93, 1.12, 19.51, 2.22, 1.62, 7.51, repro,
2008-08-09,-1.53, 1.24, 2.32, 2.13, 1.55, 7.22, repro,
2008-08-10,-0.71, 1.32, 4.42, 2.13, 1.56, 7.26, repro,
2008-08-11,-0.43, 1.27, 0.00, 2.12, 1.55, 7.18, repro,
2008-08-12,-0.52, 1.59, 5.69, 2.15, 1.57, 7.28, repro,
2008-08-13,-1.41, 1.61, 5.44, 2.18, 1.58, 7.42, repro,
2008-08-14,-0.48, -0.08, 8.05, 2.18, 1.58, 7.44, repro,
2008-08-15,-1.09, 1.09, 0.38, 2.14, 1.56, 7.30, repro,
2008-08-16,-0.16, 0.72, 8.13, 2.13, 1.56, 7.25, repro,
2008-08-17,-0.65, 0.79, 11.13, 2.16, 1.56, 7.29, repro,
2008-08-18,-0.43, 2.01, 15.71, 2.25, 1.66, 7.67, repro,
2008-08-19,0.34, 2.03, 3.33, 2.18, 1.57, 7.38, repro,
2008-08-20,-1.97, -0.88, 6.52, 2.21, 1.58, 7.39, repro,
2008-08-21,-0.89, -0.41, -1.33, 2.13, 1.56, 7.23, repro,
2008-08-22,0.02, 0.23, 5.32, 2.12, 1.55, 7.19, repro,
2008-08-23,0.47, 0.68, 4.26, 2.15, 1.55, 7.22, repro,
2008-08-24,-2.17, 0.41, 6.96, 2.19, 1.61, 7.50, repro,
2008-08-25,-2.03, 0.68, 6.36, 2.21, 1.62, 7.54, repro,
2008-08-26,-0.47, 0.17, 7.74, 2.13, 1.57, 7.23, repro,
2008-08-27,-0.30, 0.42, 10.42, 2.16, 1.59, 7.39, repro,
2008-08-28,-0.86, 0.18, 9.60, 2.29, 1.66, 7.64, repro,
2008-08-29,-0.44, 0.38, 2.97, 2.21, 1.61, 7.48, repro,
2008-08-30,-0.46, 0.94, 15.32, 2.19, 1.60, 7.43, repro,
2008-08-31,-0.72, 0.17, 5.42, 2.17, 1.59, 7.35, repro,
2008-09-01,-0.66, 1.59, -2.38, 2.14, 1.57, 7.26, repro,
2008-09-02,-0.62, 0.64, 3.67, 2.17, 1.59, 7.38, repro,
2008-09-03,1.12, 1.31, 6.13, 2.20, 1.60, 7.43, repro,
2008-09-04,0.56, -0.18, 7.92, 2.30, 1.71, 7.94, repro,
2008-09-05,-0.12, 1.14, 0.73, 2.24, 1.62, 7.51, repro,
2008-09-06,-0.72, 0.76, 4.47, 2.15, 1.57, 7.28, repro,
2008-09-07,-1.13, 1.82, 1.59, 2.15, 1.59, 7.37, repro,
2008-09-08,0.06, 0.93, 9.45, 2.18, 1.59, 7.42, repro,
2008-09-09,-0.69, 0.55, 8.89, 2.22, 1.60, 7.47, repro,
2008-09-10,0.29, 2.02, 3.59, 2.19, 1.62, 7.45, repro,
2008-09-11,-0.33, 0.77, 1.27, 2.20, 1.61, 7.46, repro,
2008-09-12,-0.44, 0.78, 5.79, 2.24, 1.66, 7.65, repro,
2008-09-13,0.47, 1.30, 8.29, 2.22, 1.62, 7.53, repro,
2008-09-14,0.62, 1.13, 7.78, 2.22, 1.63, 7.57, repro,
2008-09-15,-0.23, 1.36, 4.01, 2.18, 1.59, 7.38, repro,
2008-09-16,-0.79, 1.12, 1.50, 2.15, 1.60, 7.35, repro,
2008-09-17,-1.28, 2.29, -6.40, 2.25, 1.62, 7.57, repro,
2008-09-18,-1.02, 1.52, 4.14, 2.16, 1.56, 7.28, repro,
2008-09-19,0.11, 1.37, 9.84, 2.17, 1.56, 7.31, repro,
2008-09-20,0.36, 0.79, 8.57, 2.16, 1.58, 7.35, repro,
2008-09-21,-2.57, 1.08, 12.70, 2.14, 1.56, 7.22, repro,
2008-09-22,-0.33, 1.57, 3.96, 2.16, 1.58, 7.40, repro,
2008-09-23,0.21, 0.64, 5.59, 2.16, 1.56, 7.26, repro,
2008-09-24,-1.17, 1.73, 7.00, 2.25, 1.65, 7.62, repro,
2008-09-25,-0.25, 2.41, 7.30, 2.15, 1.57, 7.28, repro,
2008-09-26,-0.01, 1.29, 7.79, 2.15, 1.57, 7.30, repro,
2008-09-27,0.84, 0.93, 3.34, 2.17, 1.59, 7.35, repro,
2008-09-28,-0.95, 2.11, 3.40, 2.15, 1.55, 7.24, repro,
2008-09-29,-0.14, 2.20, 6.92, 2.20, 1.60, 7.36, repro,
2008-09-30,0.60, 0.35, 9.56, 2.14, 1.55, 7.21, repro,
2008-10-01,0.88, 2.24, 6.38, 2.14, 1.57, 7.24, repro,
2008-10-02,0.60, 2.88, -0.26, 2.19, 1.61, 7.47, repro,
2008-10-03,-0.51, 1.27, 10.07, 2.19, 1.60, 7.44, repro,
2008-10-04,-1.34, -0.68, 9.34, 2.17, 1.56, 7.28, repro,
2008-10-05,-0.44, 2.22, 8.53, 2.14, 1.55, 7.18, repro,
2008-10-06,-0.36, 0.79, 2.42, 2.15, 1.56, 7.24, repro,
2008-10-07,-0.44, 2.39, 4.54, 2.17, 1.57, 7.31, repro,
2008-10-08,0.57, 1.71, -0.60, 2.16, 1.58, 7.33, repro,
2008-10-09,0.52, 1.10, 3.79, 2.12, 1.54, 7.17, repro,
2008-10-10,-3.91, 3.76, 0.51, 2.11, 1.53, 7.11, repro,
2008-10-11,-2.37, 0.87, 9.42, 2.10, 1.54, 7.11, repro,
2008-10-12,-2.74, 0.51, 4.65, 2.10, 1.55, 7.15, repro,
2008-10-13,-1.05, 1.80, 1.63, 2.09, 1.54, 7.12, repro,
2008-10-14,-0.64, 2.34, -1.81, 2.11, 1.54, 7.19, repro,
2008-10-15,-0.82, 2.60, -0.22, 2.17, 1.56, 7.28, repro,
2008-10-16,-0.73, 2.20, -2.25, 2.22, 1.63, 7.54, repro,
2008-10-17,-0.26, 1.60, -7.63, 2.10, 1.55, 7.19, repro,
2008-10-18,0.22, 2.14, -0.38, 2.09, 1.54, 7.11, repro,
2008-10-19,-0.60, 1.60, 1.92, 2.10, 1.54, 7.15, repro,
2008-10-20,-0.84, 1.93, 6.17, 2.08, 1.54, 7.08, repro,
2008-10-21,-0.96, 2.72, -2.11, 2.09, 1.53, 7.09, repro,
2008-10-22,-0.87, 2.42, -4.29, 2.10, 1.54, 7.12, repro,
2008-10-23,-0.32, 1.74, 2.54, 2.09, 1.55, 7.14, repro,
2008-10-24,-0.43, 1.75, 4.56, 2.10, 1.54, 7.12, repro,
2008-10-25,-0.11, 1.77, 5.48, 2.11, 1.55, 7.16, repro,
2008-10-26,-1.14, 1.61, 0.19, 2.09, 1.54, 7.08, repro,
2008-10-27,-0.57, 2.38, -4.44, 2.11, 1.54, 7.14, repro,
2008-10-28,0.10, 2.16, -9.08, 2.19, 1.57, 7.27, repro,
2008-10-29,-0.79, 1.40, -1.17, 2.19, 1.57, 7.26, repro,
2008-10-30,1.01, 2.00, 4.10, 2.10, 1.54, 7.13, repro,
2008-10-31,-0.48, -0.45, 3.25, 2.19, 1.58, 7.34, repro,
2008-11-01,-0.51, 1.63, 8.26, 2.15, 1.58, 7.28, repro,
2008-11-02,-1.98, 0.43, 4.45, 2.15, 1.61, 7.42, repro,
2008-11-03,-0.19, 1.14, 8.11, 2.12, 1.57, 7.21, repro,
2008-11-04,-1.41, 0.47, 9.10, 2.11, 1.55, 7.16, repro,
2008-11-05,-0.48, 1.37, 4.18, 2.12, 1.57, 7.26, repro,
2008-11-06,-0.86, 0.16, -13.22, 2.14, 1.60, 7.34, repro,
2008-11-07,-1.55, 2.04, -4.08, 2.14, 1.61, 7.37, repro,
2008-11-08,-1.04, 1.83, -2.90, 2.16, 1.62, 7.44, repro,